GFSNW_prec_cloud_189.txt.gz
Cloud_Cover
100 100 100 100 63 47 100 100 100 100 100 100 100 100 100 100 100 100 100 100 100 100 100 99 100 100 99 79 100 100 100 100 100 100 100 100 100 96 97 100 98 53 48 2
100 100 98 98 100 100 100 100 100 100 100 100 100 100 100 100 100 100 100 100 100 100 100 100 100 100 100 100 100 100 100 100 100 100 77 96 100 100 100 100 100 100 100 99
100 53 100 8 3 74 100 100 100 100 100 100 100 100 100 100 100 100 100 100 100 100 100 100 100 100 100 100 100 100 100 100 100 100 100 100 100 100 100 100 100 100 100 82
100 100 100 94 0 46 100 100 100 100 100 100 100 100 100 100 100 100 100 100 100 100 100 100 100 100 100 100 100 100 100 100 100 100 100 100 100 100 100 99 100 100 100 100
100 100 100 100 100 100 100 100 100 100 100 100 100 100 100 100 100 100 100 100 100 100 100 100 100 100 100 100 100 100 100 100 100 100 100 100 100 100 100 100 100 100 93 88
100 100 100 100 100 100 100 100 98 92 100 100 100 100 100 100 100 100 100 100 100 100 100 100 100 100 100 100 100 100 100 100 100 100 100 100 100 100 100 100 100 100 90 82
100 100 100 100 100 100 100 100 100 100 100 100 100 100 100 100 100 100 100 100 100 100 100 100 100 100 100 100 100 100 100 100 100 100 100 100 100 100 100 100 100 100 99 89
100 100 100 100 100 100 100 100 100 100 100 100 100 100 100 100 100 100 100 100 100 100 100 100 100 100 100 100 100 100 100 100 100 100 100 100 100 100 99 100 100 100 100 37
100 100 100 100 100 100 100 100 100 100 100 100 100 100 100 100 100 100 100 100 100 100 100 100 100 100 100 100 100 100 100 100 100 100 100 100 100 100 96 74 98 99 99 25
100 100 100 100 100 100 100 100 100 100 100 100 100 100 100 100 100 100 100 100 100 100 100 100 100 100 100 100 100 100 100 100 100 100 100 92 100 100 100 100 98 11 59 66
100 100 100 100 100 100 100 100 100 100 100 100 100 100 100 100 100 100 100 100 100 100 100 100 100 100 100 100 100 100 100 100 100 100 100 100 74 99 89 42 47 84 47 28
100 100 100 100 100 100 100 100 100 100 100 100 100 100 100 100 100 100 100 100 100 100 100 100 100 100 100 100 100 100 100 100 96 98 97 86 36 28 6 69 100 96 97 33
99 100 100 100 100 100 100 100 100 100 100 100 100 100 100 100 100 100 100 100 100 100 100 100 100 100 100 100 100 100 100 59 100 100 70 11 48 79 94 22 43 7 5 5
73 100 100 100 100 100 100 100 100 100 100 100 100 100 100 100 100 100 100 100 100 100 100 100 100 100 100 100 100 100 100 100 100 96 54 17 92 39 6 49 5 5 5 5
38 20 99 100 100 100 100 100 100 100 100 100 100 100 100 100 100 100 100 100 100 100 100 100 100 100 90 100 100 100 100 100 100 100 59 6 50 5 5 34 94 100 97 100
100 93 29 91 100 100 100 100 100 100 100 100 100 100 100 100 100 100 100 100 100 100 100 100 100 100 100 100 100 100 100 100 34 68 99 22 6 10 100 100 100 100 92 45
5 5 97 100 49 71 100 97 100 100 100 100 100 100 100 100 100 100 100 100 100 100 100 100 100 100 99 100 100 85 64 86 80 82 22 57 100 100 100 99 94 62 77 93
51 5 5 6 88 100 100 100 100 100 100 100 100 100 100 100 100 100 98 91 88 85 72 60 94 80 85 99 34 4 17 23 51 93 97 84 90 48 23 92 98 91 85 96
85 5 5 14 48 30 27 64 100 99 65 90 100 100 100 100 100 100 100 77 94 73 81 90 62 97 98 59 12 83 100 44 88 60 5 5 39 66 73 32 94 100 68 40
81 21 52 100 77 6 24 7 3 59 96 76 98 100 100 45 61 98 97 72 100 100 93 100 100 99 21 99 100 71 18 100 100 72 93 92 25 87 66 70 93 42 91 100
43 85 100 62 12 79 38 32 48 14 21 71 100 100 94 85 92 87 91 97 100 100 96 95 91 30 56 10 96 99 99 100 97 96 100 100 88 100 99 86 100 100 100 100
49 28 66 89 99 70 53 79 51 84 98 90 97 92 97 97 100 100 100 100 100 88 96 97 59 54 70 69 100 100 99 99 100 100 100 100 100 100 100 100 100 100 100 100
20 51 79 66 9 75 85 82 87 73 90 46 94 79 99 100 100 100 100 100 90 100 96 58 46 98 67 99 100 87 89 100 100 100 100 100 100 100 100 100 100 100 100 100
88 30 5 67 49 41 78 92 100 58 81 66 94 100 100 100 100 100 100 100 100 100 99 92 75 98 78 100 95 100 100 100 97 95 100 100 100 100 100 100 100 100 100 100
41 6 36 48 37 70 67 50 72 72 89 93 96 88 100 99 100 99 100 95 83 78 76 100 94 58 61 100 100 100 100 92 100 100 100 100 100 100 100 100 100 100 100 100
22 45 82 32 71 100 100 75 98 72 90 96 88 98 86 98 100 100 100 89 72 84 100 96 53 100 78 100 100 100 100 100 100 100 100 100 100 100 100 100 100 100 100 100
39 74 91 99 42 99 100 41 99 80 100 73 100 89 87 100 100 100 98 66 70 100 100 100 100 100 100 100 100 100 98 98 95 100 100 100 100 100 100 100 100 100 100 100

GFSNW_prec_cloud_192.txt.gz
Cloud_Cover
96 100 90 88 100 100 100 100 100 100 100 100 100 100 100 100 100 100 100 100 100 100 100 99 100 41 91 100 100 100 100 100 100 100 95 100 99 93 100 100 31 100 69 27
93 100 100 100 100 97 100 100 100 100 100 100 100 100 100 100 100 100 100 100 100 100 100 100 100 100 100 100 100 100 100 100 100 100 100 100 100 100 100 100 98 88 76 53
100 100 100 100 100 100 100 100 100 100 100 100 100 100 100 100 100 100 100 100 100 100 100 100 100 100 100 97 100 100 100 100 100 100 100 100 100 100 100 98 91 77 11 13
100 100 100 100 100 100 100 100 100 100 100 100 100 100 100 100 100 100 100 100 100 100 100 100 100 100 100 100 100 100 100 100 100 100 100 100 100 100 100 69 98 100 100 93
100 100 100 100 100 100 100 100 100 100 100 100 100 100 100 100 100 100 100 100 100 100 100 100 100 100 100 100 100 100 100 100 100 100 100 100 100 100 100 100 100 100 100 100
100 100 100 100 32 66 100 100 52 99 100 100 100 100 100 100 100 98 100 100 100 100 100 100 100 100 100 100 100 100 100 100 100 100 100 100 100 100 100 100 100 100 100 85
100 100 100 100 80 88 5 14 43 96 100 100 100 100 100 100 100 100 100 100 100 100 100 100 100 100 100 100 100 100 100 100 100 100 100 100 100 99 100 100 100 100 66 27
100 100 100 100 100 100 100 100 100 90 100 100 100 100 100 100 100 100 100 100 100 100 100 100 100 100 100 100 100 100 100 100 100 100 100 100 100 100 100 100 100 86 100 100
100 100 100 100 100 100 100 100 30 71 98 100 100 100 100 100 100 100 100 100 100 100 100 100 100 100 100 100 100 100 100 100 100 100 100 100 100 100 97 100 100 99 100 100
100 100 100 100 100 100 100 100 100 99 100 100 75 90 100 100 100 100 100 100 100 100 100 100 100 100 100 100 100 100 100 100 100 100 100 100 100 100 100 100 100 94 100 100
100 100 100 100 100 100 100 100 100 100 100 100 100 88 100 100 100 100 100 100 100 100 100 100 100 100 100 100 100 100 100 100 100 100 100 100 100 100 76 100 100 100 100 26
100 100 100 100 100 100 100 100 100 100 100 100 100 100 100 100 100 100 100 100 100 100 100 100 100 100 100 100 100 100 100 100 100 100 100 100 100 100 100 100 100 98 22 20
100 100 100 100 100 100 100 100 100 100 100 100 100 100 100 100 100 100 100 100 100 100 100 100 100 100 100 100 100 100 100 100 100 100 100 100 100 100 100 100 100 61 80 99
100 100 100 100 100 100 100 100 100 100 100 100 100 100 100 100 100 100 100 100 100 100 100 100 100 100 100 100 100 100 100 100 100 100 100 100 100 100 99 100 74 14 14 56
100 100 100 100 100 100 100 100 100 100 100 100 100 100 100 100 100 100 100 100 100 100 100 100 100 100 100 100 100 100 100 100 100 100 100 100 94 86 26 5 5 49 67 70
100 100 100 100 100 100 100 100 100 100 100 100 100 100 100 100 100 100 100 100 100 100 100 100 100 100 100 100 100 100 100 100 100 100 100 100 100 59 5 19 84 69 30 80
100 100 100 100 100 100 100 100 100 100 100 100 100 100 100 100 100 100 100 100 100 100 100 100 100 100 100 100 100 100 100 100 100 100 100 64 25 13 31 5 5 9 29 71
36 100 100 100 100 100 100 100 100 100 100 100 100 100 100 100 100 100 100 100 100 100 100 100 100 100 100 100 100 100 55 78 91 95 84 20 8 5 5 5 6 6 53 63
4 5 65 100 100 100 100 100 100 100 100 100 100 100 100 100 100 100 100 100 100 100 100 100 100 100 100 100 100 100 100 100 56 59 45 17 5 5 82 74 57 97 94 77
5 3 13 88 91 100 100 100 100 100 100 99 100 100 100 100 100 100 100 100 100 100 100 94 100 100 92 44 74 100 88 100 26 30 89 81 7 67 22 26 72 100 100 97
28 56 93 63 11 6 5 89 100 100 100 94 96 98 93 99 100 100 100 100 100 100 99 94 61 97 98 99 100 96 78 29 44 100 97 100 77 81 100 96 100 100 100 100
2 1 24 70 29 36 19 46 51 58 45 84 92 100 88 62 97 100 99 100 98 100 83 88 100 100 100 96 82 100 100 90 100 100 100 100 100 100 100 100 100 100 94 100
64 52 8 19 3 7 5 5 78 94 9 50 87 94 99 100 77 100 100 100 92 78 87 69 34 11 69 100 100 100 97 82 69 100 100 100 100 100 100 99 100 100 100 100
22 32 4 5 66 77 100 100 100 85 6 34 100 68 8 98 67 50 93 97 100 95 63 15 28 54 100 100 100 100 100 95 96 100 98 97 100 100 100 100 100 100 100 100
27 21 35 65 46 42 88 37 18 8 50 75 38 21 15 98 100 43 91 94 71 21 83 99 100 100 100 100 100 100 84 82 57 100 79 80 44 98 100 100 100 100 100 100
8 32 43 54 95 98 100 64 96 35 34 85 100 34 48 26 15 16 36 88 84 98 100 100 100 95 45 68 94 100 87 100 90 100 83 43 96 100 100 100 100 100 100 100
67 77 95 93 90 98 98 96 51 32 38 56 73 48 13 66 26 56 94 85 98 100 100 100 100 88 78 99 61 82 17 100 100 100 100 93 90 100 100 100 100 100 100 100

GFSNW_prec_cloud_195.txt.gz
Cloud_Cover
3 5 11 98 100 100 100 100 100 100 100 100 100 100 100 100 100 100 100 100 100 84 85 100 100 100 100 100 100 100 100 100 99 79 70 96 100 100 100 100 100 100 100 100
14 20 46 8 98 100 100 100 98 100 100 100 100 100 100 100 100 100 100 100 100 100 100 99 100 100 100 100 100 100 100 100 100 100 100 100 100 100 100 100 98 100 98 88
24 32 92 100 100 100 100 100 100 100 100 100 100 100 100 100 100 100 100 100 100 100 100 97 58 97 100 100 100 100 100 100 100 100 100 100 100 100 100 100 96 51 10 94
70 80 100 100 100 100 100 100 100 32 100 100 100 100 100 100 100 100 100 100 100 100 100 100 100 98 99 100 100 100 100 100 100 100 100 100 100 100 100 100 100 89 23 22
78 100 100 100 100 100 100 100 100 100 99 100 100 100 100 100 100 100 100 100 100 100 100 100 100 65 100 100 100 100 100 100 100 100 100 100 100 100 100 100 100 96 91 61
100 100 100 100 100 100 100 100 47 100 10 100 100 100 100 100 100 100 98 100 100 100 100 100 100 100 100 100 100 100 100 100 100 100 100 100 100 100 100 100 100 100 100 100
100 100 100 100 100 100 100 100 61 100 43 77 100 100 100 100 100 100 83 100 100 100 100 100 100 100 100 100 100 100 100 100 100 100 100 100 99 100 100 100 100 100 100 100
100 100 100 100 100 100 100 100 100 100 100 36 100 100 100 100 100 100 99 100 100 100 100 100 100 100 100 100 100 100 100 100 100 100 100 100 100 100 100 100 100 100 99 86
100 100 100 100 100 100 100 100 100 100 100 100 100 100 100 100 100 100 100 100 100 100 100 100 100 100 100 100 100 100 100 100 100 100 100 100 100 100 100 100 99 100 100 100
100 100 100 100 100 100 100 100 100 100 100 95 100 100 100 100 100 100 100 100 100 100 100 100 100 100 100 100 100 100 100 100 100 100 100 100 100 100 100 100 100 100 100 100
100 100 100 100 100 100 100 100 100 32 100 100 100 98 100 99 100 100 100 100 100 100 100 100 100 100 100 100 100 100 100 100 100 100 100 100 100 100 100 100 91 100 100 100
100 100 100 100 100 100 100 100 100 100 86 100 100 96 58 58 100 100 100 100 100 100 100 100 100 100 100 100 100 100 100 100 100 100 100 100 100 100 100 100 100 100 100 100
100 100 100 100 100 100 100 100 100 100 100 100 100 100 100 100 100 100 100 100 100 100 100 100 100 100 100 100 100 100 100 100 100 100 100 100 100 100 98 100 100 100 99 77
100 100 100 100 100 100 100 100 100 100 100 100 100 100 100 100 93 100 100 100 100 100 100 100 100 100 100 100 100 100 100 100 100 100 100 100 100 100 100 100 100 100 100 100
100 100 100 100 100 100 100 100 100 100 100 100 100 100 100 100 100 100 100 100 100 100 100 100 100 100 100 100 100 100 100 100 100 100 100 100 100 100 100 98 100 100 77 98
100 100 100 100 100 100 100 100 100 100 100 100 100 100 100 100 100 100 100 100 100 100 100 100 100 100 100 100 100 100 100 100 100 100 100 100 100 100 100 100 49 56 91 52
100 100 100 100 100 100 100 100 100 100 100 100 100 100 100 100 100 100 100 100 100 100 100 100 100 100 100 100 100 100 100 100 100 100 100 100 100 100 97 71 74 99 80 59
100 100 100 100 100 100 100 100 100 100 100 100 100 100 100 100 100 100 100 100 100 100 100 100 100 100 100 100 100 100 100 100 100 100 100 100 100 97 71 40 29 72 82 99
100 100 100 100 100 100 100 100 100 100 100 100 100 100 100 100 100 100 100 100 100 100 100 100 100 100 100 100 100 100 100 100 100 100 100 82 38 42 7 14 8 10 11 5
2 99 100 100 100 100 100 100 100 100 100 100 100 100 100 100 100 100 100 100 100 100 100 100 100 100 100 100 100 100 100 100 100 100 95 100 95 48 71 92 52 85 100 100
4 15 50 100 100 100 100 100 100 100 100 100 100 100 100 100 100 100 100 100 100 100 100 100 100 100 100 100 100 100 100 100 100 100 100 90 10 5 5 40 100 94 100 100
12 24 5 4 40 100 100 100 100 100 100 100 100 100 100 100 100 100 100 100 100 100 100 100 100 66 46 45 62 94 100 100 100 81 41 52 100 99 88 100 100 100 98 100
4 5 0 5 25 40 82 98 100 100 100 100 100 100 100 100 100 100 100 100 100 96 93 18 14 35 100 100 100 68 79 39 100 96 100 100 100 100 100 100 99 98 100 100
5 6 37 68 86 100 80 46 67 7 49 94 100 100 100 100 100 100 100 100 100 100 100 100 100 100 66 83 77 100 99 100 100 100 100 100 100 100 100 100 100 100 100 100
6 4 97 100 35 33 48 43 96 19 7 100 100 100 57 98 87 68 58 58 84 84 78 84 90 87 84 90 100 94 100 98 99 100 100 100 100 100 100 100 99 100 100 100
8 5 26 18 88 78 68 6 35 78 14 53 20 47 7 87 12 6 40 16 19 86 98 100 100 100 97 100 100 100 100 58 100 100 97 100 100 100 100 100 100 100 100 100
41 74 38 7 23 100 99 93 68 7 78 98 62 57 53 41 70 19 83 100 100 100 100 100 100 100 100 100 100 100 71 89 99 100 98 88 100 100 100 100 100 100 100 100

GFSNW_prec_cloud_198.txt.gz
Cloud_Cover
92 6 98 8 5 72 93 100 100 65 5 100 100 100 100 100 100 100 100 100 100 40 100 100 100 100 100 100 100 100 100 100 100 100 100 100 100 100 100 100 100 100 100 96
45 5 5 6 80 100 100 100 100 55 100 94 100 100 100 100 100 100 100 100 100 72 100 100 100 100 100 100 100 100 100 100 100 100 100 100 100 100 100 100 100 100 100 98
5 5 8 98 100 100 100 100 100 99 78 41 100 100 100 100 100 100 100 100 100 100 100 100 100 100 100 100 100 100 100 100 79 100 100 100 78 95 100 100 100 100 100 100
5 14 100 100 100 100 100 100 99 27 92 52 76 100 100 100 100 100 100 100 100 100 100 100 100 92 100 100 100 100 100 100 100 100 100 100 100 100 100 100 100 100 100 100
8 100 100 100 100 100 100 100 100 86 5 5 48 100 100 92 100 100 100 100 100 100 100 100 100 100 100 100 100 100 100 100 100 100 100 100 100 100 100 100 100 100 100 100
100 100 100 100 100 100 100 100 99 100 96 95 82 80 67 98 100 100 100 100 100 100 100 100 100 100 100 100 100 100 100 100 100 100 100 100 100 100 100 100 100 100 100 100
100 100 100 100 100 100 100 100 100 100 100 85 62 82 24 100 100 100 100 100 100 100 100 100 100 100 100 100 100 100 100 100 100 100 100 100 100 100 100 100 100 100 100 100
100 100 100 100 100 100 100 100 100 100 99 77 60 93 5 100 100 100 100 100 100 100 100 100 100 100 100 100 100 100 100 100 100 100 100 65 22 94 100 100 100 100 100 100
100 100 100 100 100 100 100 100 100 100 100 75 3 5 5 66 99 100 100 100 100 100 100 100 100 100 100 100 100 100 100 100 100 100 100 81 94 100 99 100 100 100 99 100
100 100 100 100 100 100 100 100 100 100 100 100 100 29 62 100 100 100 100 100 100 100 100 100 100 100 100 100 100 100 100 100 100 100 100 100 99 100 100 100 100 100 100 76
100 100 100 100 100 100 100 100 100 100 100 97 74 9 5 90 73 100 100 100 100 100 100 100 100 100 100 100 100 100 100 100 100 100 100 100 100 100 100 100 100 100 100 99
100 100 100 100 100 100 100 100 100 100 100 99 100 100 95 94 29 6 100 100 100 100 100 100 100 100 100 100 100 100 100 100 100 100 100 100 100 100 100 100 100 100 100 100
100 100 100 100 100 100 100 100 100 100 100 100 100 100 100 100 100 99 70 100 100 100 100 100 100 100 100 100 100 100 100 100 100 100 100 100 100 100 100 100 100 100 100 100
100 100 100 100 100 100 100 100 100 96 100 100 100 100 100 100 100 100 100 100 100 100 100 100 100 100 100 100 100 100 100 100 100 100 100 100 100 100 100 100 100 100 100 100
100 100 100 100 100 100 100 100 100 100 100 100 100 100 100 100 100 100 100 100 100 100 100 100 100 100 100 100 100 100 100 100 100 100 100 100 100 100 100 100 100 100 100 100
100 100 100 100 100 100 100 100 100 100 100 100 100 100 100 100 100 100 100 100 100 100 100 100 100 100 100 100 100 100 100 100 100 100 100 100 100 100 100 89 100 100 100 100
100 100 100 100 100 100 100 100 100 100 100 100 100 100 100 100 100 100 100 100 100 100 100 100 100 100 100 100 100 100 100 100 100 100 100 100 100 100 100 100 100 99 81 17
100 100 100 100 100 100 100 100 100 100 100 100 100 100 100 100 100 100 100 100 100 100 100 100 100 100 100 100 100 100 100 100 100 100 100 100 100 100 100 100 94 58 96 95
97 100 100 100 100 100 100 100 100 100 100 100 100 100 100 100 100 100 100 100 100 100 100 100 100 100 100 100 100 100 100 100 100 100 100 100 100 100 100 100 100 100 100 100
0 71 100 100 100 100 100 100 100 100 100 100 100 100 100 100 100 100 100 100 100 100 100 100 100 100 100 100 100 100 100 100 100 100 100 100 100 100 100 100 100 100 100 100
0 17 39 100 100 100 100 100 100 100 100 100 100 100 100 100 100 100 100 100 100 100 100 100 100 100 100 100 100 100 100 100 100 100 100 100 100 94 90 86 93 99 100 100
1 3 2 0 58 100 100 100 100 100 100 100 100 100 100 100 100 100 100 100 100 100 100 100 100 100 100 100 100 100 100 100 100 93 50 21 17 34 48 27 44 28 100 100
0 0 0 2 5 6 64 100 100 100 100 100 100 100 100 100 100 100 100 100 100 100 100 100 100 100 100 100 100 99 78 79 26 26 23 22 69 100 100 100 99 100 100 100
1 4 0 4 47 74 99 98 67 69 100 100 100 100 100 100 100 100 100 100 100 100 100 100 100 100 100 99 98 99 88 31 45 84 100 100 100 100 100 100 100 100 76 91
5 5 58 58 19 21 57 15 34 13 5 10 65 95 100 100 100 100 100 100 100 100 100 100 92 86 65 74 73 84 99 68 90 100 100 100 100 100 100 100 100 100 100 100
5 6 5 6 5 5 5 27 5 5 6 14 55 63 17 9 36 75 100 100 100 100 100 100 100 100 100 99 100 100 100 100 100 100 100 100 100 100 100 90 98 100 100 100
5 38 48 52 6 8 8 30 25 5 5 5 5 5 1 5 4 4 2 5 5 6 98 100 100 100 61 64 100 100 100 100 100 100 100 100 100 100 100 100 100 100 100 100

GFSNW_prec_cloud_201.txt.gz
Cloud_Cover
62 100 100 100 100 100 71 98 100 40 17 100 100 67 17 43 100 100 100 100 100 100 100 100 100 100 100 100 100 100 100 100 100 100 100 100 100 100 100 100 79 100 88 42
18 70 100 100 100 100 83 100 100 28 79 98 88 53 5 5 90 100 100 100 100 99 100 100 100 99 100 100 100 100 100 99 100 100 100 100 100 100 100 100 100 100 100 100
10 5 64 95 100 99 100 100 100 100 100 90 96 56 20 7 79 82 100 100 100 100 100 100 100 100 100 100 100 100 100 100 100 100 100 100 100 100 100 100 99 100 92 82
6 5 5 16 66 100 100 100 99 45 91 100 100 100 92 10 100 100 100 100 100 100 100 100 100 100 100 100 100 100 100 100 100 100 100 100 100 100 100 100 100 100 99 100
6 5 5 5 17 100 100 100 100 100 22 69 91 100 29 93 13 100 100 99 100 100 100 100 100 100 100 100 100 100 100 100 100 100 100 100 100 100 100 100 100 100 100 100
26 5 5 100 100 100 100 100 100 100 100 65 100 36 4 3 12 99 100 49 100 100 100 100 100 100 100 100 100 100 100 100 100 100 100 100 100 100 100 100 100 100 100 100
100 100 100 100 100 100 100 100 100 100 74 100 49 5 5 5 2 8 39 100 100 100 100 100 100 100 100 100 100 100 100 100 100 100 100 100 100 100 100 100 100 100 100 100
100 100 100 100 100 100 100 100 100 100 100 48 49 5 5 6 27 100 72 97 100 100 100 100 100 100 100 100 100 100 100 100 100 100 100 100 100 100 100 100 100 100 100 100
100 100 100 100 100 100 100 100 100 100 100 74 100 99 10 58 55 45 100 100 100 100 100 100 100 100 100 100 100 100 100 100 100 100 100 100 100 100 100 100 100 100 100 100
100 100 100 100 100 100 100 100 100 100 100 100 100 56 56 26 74 96 99 100 100 100 100 100 100 100 100 100 100 100 100 100 100 100 100 100 100 100 100 97 100 100 100 100
100 100 100 100 100 100 100 100 100 100 100 100 100 100 14 100 100 30 99 100 100 100 100 100 100 100 100 100 100 100 100 100 100 100 100 89 100 100 100 100 100 100 100 100
100 100 100 100 100 100 100 100 100 100 100 100 100 100 100 93 88 6 65 42 100 100 100 100 100 100 100 100 100 100 100 100 100 100 100 100 100 100 100 100 100 100 100 100
100 100 100 100 100 100 100 100 100 100 100 100 100 85 100 100 90 40 46 100 100 98 100 100 100 100 100 100 100 100 100 100 100 100 100 100 100 100 100 100 100 100 100 100
100 100 100 100 100 100 100 100 100 100 100 100 100 100 76 85 100 98 88 86 100 100 100 100 100 100 100 100 100 100 100 100 100 100 100 100 100 100 100 100 100 100 100 100
99 100 100 100 100 100 100 100 100 100 100 100 100 100 100 100 100 100 100 100 100 100 100 100 100 100 100 100 100 100 100 100 100 100 100 100 100 100 100 100 100 100 100 100
100 100 100 100 100 100 100 100 100 100 100 100 100 100 100 100 100 100 100 100 100 100 100 100 100 100 100 100 100 100 100 100 100 100 100 100 100 100 100 100 100 100 100 100
100 100 100 100 100 100 100 100 100 100 100 100 100 100 100 100 100 100 100 100 100 100 100 100 100 100 100 100 100 100 100 100 100 100 100 100 100 100 100 100 100 100 100 100
100 100 100 100 100 100 100 100 100 100 100 100 100 100 95 100 100 100 100 100 100 100 100 100 100 100 100 100 100 100 100 100 100 100 100 100 100 100 100 100 100 100 100 100
81 100 100 100 100 100 100 100 100 100 100 100 100 100 100 100 100 100 100 76 100 92 99 100 100 100 84 40 100 92 100 100 100 100 100 100 100 100 100 100 100 100 100 100
0 70 100 100 100 100 100 100 100 100 100 100 100 100 100 100 100 100 100 100 100 100 100 100 100 100 100 100 100 100 100 100 100 100 100 100 100 100 100 100 100 100 100 100
1 22 53 100 100 100 100 100 100 100 100 100 100 100 100 100 100 100 100 100 100 100 100 100 100 100 100 100 100 100 100 100 100 100 100 100 100 100 100 100 100 100 100 100
0 12 17 26 100 100 100 100 100 100 100 100 100 100 100 100 100 100 100 100 100 100 100 100 100 100 100 100 100 100 100 100 100 100 100 100 100 100 100 100 100 100 100 100
0 0 0 2 8 97 100 100 100 100 100 100 100 100 100 100 100 100 100 100 100 100 100 100 100 100 100 100 100 100 100 100 100 100 100 100 100 100 100 100 100 100 100 100
2 5 5 15 50 61 100 100 100 100 100 100 100 100 100 100 100 100 100 100 100 100 100 100 100 100 100 100 100 100 87 99 100 100 100 100 100 100 100 100 100 100 100 100
4 4 80 37 36 45 34 22 33 100 100 100 100 100 100 100 100 100 100 100 100 100 100 100 100 100 100 100 100 100 100 100 100 100 100 100 100 100 100 100 100 100 100 100
5 5 5 15 9 5 7 33 14 7 22 63 100 100 100 100 100 100 100 100 100 100 100 100 100 100 100 100 100 100 100 100 100 100 100 100 100 100 100 100 100 100 100 100
5 15 86 49 5 6 27 60 13 6 5 5 5 5 16 84 100 100 100 100 100 100 100 100 100 100 100 100 100 100 100 100 100 100 100 100 100 100 100 100 100 100 98 100

GFSNW_prec_cloud_204.txt.gz
Cloud_Cover
98 88 83 100 100 100 100 91 100 100 95 100 100 100 5 0 50 100 100 100 100 100 100 78 84 6 5 99 100 88 100 100 100 100 100 100 100 100 100 99 6 38 95 48
100 100 98 100 100 100 99 100 100 100 100 98 95 5 5 5 0 100 68 97 100 100 100 95 5 1 8 100 100 100 67 100 100 100 100 98 100 100 100 100 100 94 96 76
100 100 90 100 100 100 100 100 100 100 100 49 69 96 39 64 4 66 100 98 100 100 100 97 4 48 100 100 100 100 100 100 100 100 100 100 100 100 100 100 100 100 78 52
100 99 5 86 100 100 100 100 100 100 100 100 100 99 48 85 100 39 32 98 100 100 100 100 23 100 100 100 100 100 100 100 100 100 100 100 100 100 100 100 40 62 39 12
100 24 5 31 100 100 100 100 100 100 100 65 100 100 72 74 5 100 76 26 100 100 100 100 100 100 100 100 100 100 100 100 100 100 100 100 100 100 100 100 100 100 100 100
88 70 32 5 66 77 100 100 100 100 99 98 97 25 10 3 16 3 15 5 56 100 44 8 99 100 100 100 100 100 100 100 100 100 100 100 100 100 100 100 100 100 100 100
30 55 22 7 5 12 97 100 100 100 100 92 46 86 90 5 4 1 6 100 100 100 100 100 100 100 100 100 100 100 100 100 100 100 100 100 100 100 100 100 100 100 100 100
100 99 98 99 100 100 100 100 100 100 100 89 91 89 59 98 60 5 5 93 100 100 100 100 100 100 100 100 100 100 100 100 100 100 100 100 100 100 100 100 100 100 100 100
100 100 100 100 100 100 100 100 100 100 100 100 100 94 51 28 6 58 5 1 6 99 100 100 100 100 100 100 100 100 100 100 100 100 100 100 100 100 100 100 100 100 100 100
100 100 100 100 100 100 100 100 100 100 100 100 100 100 100 100 58 65 67 13 100 100 100 100 100 100 99 100 100 100 100 100 100 100 100 90 100 100 100 100 100 100 100 100
100 100 100 100 100 100 100 100 100 100 100 100 100 100 100 100 33 56 9 65 69 100 97 100 98 97 100 100 100 100 100 100 100 100 100 100 100 100 100 100 100 100 100 100
100 100 100 100 100 100 100 100 100 100 100 100 100 100 100 100 100 100 94 74 27 35 100 89 55 74 82 100 100 100 100 100 100 100 100 100 100 100 100 100 100 100 100 100
100 100 100 100 100 100 100 100 100 100 100 100 100 100 100 100 62 35 90 83 20 65 100 100 98 80 100 100 100 100 100 100 100 100 100 100 100 100 100 100 100 100 100 100
100 100 100 100 100 100 100 100 100 100 100 100 100 100 100 100 83 67 67 37 100 100 100 100 96 100 100 100 100 100 100 100 100 100 100 100 100 100 100 100 100 100 100 100
100 100 100 100 100 100 100 100 100 100 100 100 100 100 100 100 99 93 100 50 98 100 100 100 100 100 100 100 100 100 100 100 100 100 100 100 100 100 100 100 100 100 100 100
6 100 100 100 100 100 100 100 100 100 100 100 100 100 100 100 99 100 100 100 100 100 100 100 100 100 100 93 82 100 100 100 100 100 100 100 100 100 100 100 100 100 100 100
7 100 100 100 100 100 100 100 100 100 100 100 100 100 100 100 100 100 100 100 100 100 100 100 100 100 98 100 63 100 100 100 100 100 100 100 100 100 100 100 100 100 100 100
2 37 100 100 100 100 100 100 100 100 100 100 100 100 100 100 100 100 100 100 100 100 100 100 100 100 98 100 100 100 100 100 100 100 100 100 100 100 100 100 100 100 100 100
0 2 98 100 100 100 100 100 100 100 100 100 100 100 100 100 100 100 100 100 100 100 100 100 100 100 100 100 100 100 87 89 100 100 100 100 100 100 100 100 100 100 100 100
0 0 8 100 98 100 100 100 100 100 100 100 100 100 100 100 100 100 100 100 100 100 100 100 100 70 6 19 99 100 100 100 100 100 100 100 100 100 100 100 100 100 100 100
0 23 51 5 100 100 100 100 100 100 100 100 100 100 100 100 100 100 100 100 100 100 100 100 100 100 100 100 100 100 100 100 100 94 89 100 100 100 100 100 100 100 100 100
20 75 97 7 12 100 100 100 100 100 100 100 100 100 100 100 100 100 100 100 100 100 100 100 94 100 100 100 100 100 100 100 100 100 98 98 100 100 100 100 100 100 100 100
1 14 1 2 4 6 97 100 100 100 100 100 100 100 100 100 100 100 100 100 100 100 100 100 100 100 100 100 100 100 100 100 100 100 100 100 100 100 100 100 100 100 100 100
22 4 6 5 51 64 94 95 100 100 100 100 100 100 100 100 100 100 100 100 100 100 100 100 100 100 100 100 100 100 100 100 100 100 100 100 100 100 100 100 100 100 100 100
47 5 80 56 33 75 42 59 53 93 100 100 100 100 100 100 100 100 100 100 100 100 100 100 100 100 100 100 100 100 100 100 100 100 100 100 100 100 100 100 100 100 100 100
30 54 11 59 9 13 15 65 30 10 75 92 100 100 100 100 100 100 100 100 100 100 100 100 100 100 100 100 100 100 100 100 100 100 100 100 100 100 100 100 100 100 100 100
15 44 94 53 5 6 6 13 5 5 6 6 8 80 100 100 100 100 100 100 100 100 100 100 100 100 100 100 100 100 100 100 100 100 100 100 100 100 100 100 100 100 100 100